Time,TemperatureF,DewpointF,PressureIn,WindDirection,WindDirectionDegrees,WindSpeedMPH,WindSpeedGustMPH,Humidity,HourlyPrecipIn,Conditions,Clouds,dailyrainin,SoftwareType,DateUTC
2013-03-31 00:00:00,41.0,21.8,30.11,NNE,18,0.0,0.0,46,0.00,CLR,,0.00,WeatherDisplay:10.37,2013-03-31 04:00:00,
2013-03-31 00:01:00,41.1,21.9,30.11,NNE,18,0.0,0.0,46,0.00,CLR,,0.00,WeatherDisplay:10.37,2013-03-31 04:01:00,
2013-03-31 00:03:00,41.1,21.9,30.11,NNE,18,0.0,0.0,46,0.00,CLR,,0.00,WeatherDisplay:10.37,2013-03-31 04:03:00,
2013-03-31 00:08:00,40.8,21.6,30.11,NNE,18,0.0,0.0,46,0.00,CLR,,0.00,WeatherDisplay:10.37,2013-03-31 04:08:00,
2013-03-31 00:13:00,40.7,21.5,30.11,NNE,18,0.0,0.0,46,0.00,CLR,,0.00,WeatherDisplay:10.37,2013-03-31 04:13:00,
2013-03-31 00:18:00,40.8,21.6,30.11,NNE,18,0.0,0.0,46,0.00,CLR,,0.00,WeatherDisplay:10.37,2013-03-31 04:18:00,
2013-03-31 00:23:00,40.4,21.3,30.11,NNE,18,0.0,0.0,46,0.00,CLR,,0.00,WeatherDisplay:10.37,2013-03-31 04:23:00,
2013-03-31 00:28:00,40.5,21.9,30.11,NNE,18,0.0,0.0,47,0.00,CLR,,0.00,WeatherDisplay:10.37,2013-03-31 04:28:00,
2013-03-31 00:33:00,40.1,22.0,30.11,NNE,18,0.0,0.0,48,0.00,CLR,,0.00,WeatherDisplay:10.37,2013-03-31 04:33:00,
2013-03-31 00:38:00,40.1,22.0,30.11,NNE,18,0.0,0.0,48,0.00,CLR,,0.00,WeatherDisplay:10.37,2013-03-31 04:38:00,
2013-03-31 00:43:00,39.8,21.7,30.12,NNE,18,0.0,0.0,48,0.00,CLR,,0.00,WeatherDisplay:10.37,2013-03-31 04:43:00,
2013-03-31 00:48:00,39.5,21.9,30.12,NNE,18,0.0,0.0,49,0.00,CLR,,0.00,WeatherDisplay:10.37,2013-03-31 04:48:00,
2013-03-31 00:53:00,39.2,21.7,30.12,NNE,18,0.0,0.0,49,0.00,CLR,,0.00,WeatherDisplay:10.37,2013-03-31 04:53:00,
2013-03-31 00:58:00,39.0,21.5,30.12,NNE,18,0.0,0.0,49,0.00,CLR,,0.00,WeatherDisplay:10.37,2013-03-31 04:58:00,
2013-03-31 01:03:00,38.6,21.6,30.12,NNE,18,0.0,0.0,50,0.00,CLR,,0.00,WeatherDisplay:10.37,2013-03-31 05:03:00,
2013-03-31 01:08:00,38.5,22.0,30.11,NNE,18,0.0,0.0,51,0.00,CLR,,0.00,WeatherDisplay:10.37,2013-03-31 05:08:00,
2013-03-31 01:13:00,38.4,21.9,30.11,NNE,18,0.0,0.0,51,0.00,CLR,,0.00,WeatherDisplay:10.37,2013-03-31 05:13:00,
2013-03-31 01:18:00,38.6,21.6,30.12,NNE,18,0.0,0.0,50,0.00,CLR,,0.00,WeatherDisplay:10.37,2013-03-31 05:18:00,
2013-03-31 01:23:00,38.4,21.9,30.12,NNE,18,0.0,0.0,51,0.00,CLR,,0.00,WeatherDisplay:10.37,2013-03-31 05:23:00,
2013-03-31 01:28:00,38.2,21.7,30.12,NNE,18,0.0,0.0,51,0.00,CLR,,0.00,WeatherDisplay:10.37,2013-03-31 05:28:00,
2013-03-31 01:33:00,37.8,21.8,30.12,NNE,18,0.0,0.0,52,0.00,CLR,,0.00,WeatherDisplay:10.37,2013-03-31 05:33:00,
2013-03-31 01:38:00,37.4,21.4,30.12,NNE,18,0.0,0.0,52,0.00,CLR,,0.00,WeatherDisplay:10.37,2013-03-31 05:38:00,
2013-03-31 01:43:00,37.3,21.3,30.11,NNE,18,0.0,0.0,52,0.00,CLR,,0.00,WeatherDisplay:10.37,2013-03-31 05:43:00,
2013-03-31 01:48:00,37.4,21.8,30.12,NNE,18,0.0,0.0,53,0.00,CLR,,0.00,WeatherDisplay:10.37,2013-03-31 05:48:00,
2013-03-31 01:54:00,37.2,21.7,30.12,NNE,18,0.0,0.0,53,0.00,CLR,,0.00,WeatherDisplay:10.37,2013-03-31 05:54:00,
2013-03-31 01:59:00,37.3,22.2,30.12,NNE,18,0.0,0.0,54,0.00,CLR,,0.00,WeatherDisplay:10.37,2013-03-31 05:59:00,
2013-03-31 02:04:00,37.0,21.9,30.12,NNE,18,0.0,0.0,54,0.00,CLR,,0.00,WeatherDisplay:10.37,2013-03-31 06:04:00,
2013-03-31 02:09:00,36.7,22.1,30.12,NNE,18,0.0,0.0,55,0.00,CLR,,0.00,WeatherDisplay:10.37,2013-03-31 06:09:00,
2013-03-31 02:14:00,36.5,21.9,30.12,NNE,18,0.0,0.0,55,0.00,CLR,,0.00,WeatherDisplay:10.37,2013-03-31 06:14:00,
2013-03-31 02:19:00,36.2,21.6,30.11,NNE,18,0.0,0.0,55,0.00,CLR,,0.00,WeatherDisplay:10.37,2013-03-31 06:19:00,
2013-03-31 02:24:00,36.2,22.0,30.11,NNE,18,0.0,0.0,56,0.00,CLR,,0.00,WeatherDisplay:10.37,2013-03-31 06:24:00,
2013-03-31 02:29:00,35.8,21.7,30.11,NNE,18,0.0,0.0,56,0.00,CLR,,0.00,WeatherDisplay:10.37,2013-03-31 06:29:00,
2013-03-31 02:34:00,35.8,21.7,30.11,NNE,18,0.0,0.0,56,0.00,CLR,,0.00,WeatherDisplay:10.37,2013-03-31 06:34:00,
2013-03-31 02:39:00,35.7,22.0,30.11,NNE,18,0.0,0.0,57,0.00,CLR,,0.00,WeatherDisplay:10.37,2013-03-31 06:39:00,
2013-03-31 02:44:00,35.6,21.9,30.11,NNE,18,0.0,0.0,57,0.00,CLR,,0.00,WeatherDisplay:10.37,2013-03-31 06:44:00,
2013-03-31 02:49:00,35.3,22.0,30.11,NNE,18,0.0,0.0,58,0.00,CLR,,0.00,WeatherDisplay:10.37,2013-03-31 06:49:00,
2013-03-31 02:54:00,35.4,22.1,30.11,NNE,18,0.0,0.0,58,0.00,CLR,,0.00,WeatherDisplay:10.37,2013-03-31 06:54:00,
2013-03-31 02:59:00,35.1,22.2,30.11,NNE,18,0.0,0.0,59,0.00,CLR,,0.00,WeatherDisplay:10.37,2013-03-31 06:59:00,
2013-03-31 03:04:00,34.9,22.4,30.11,NNE,18,0.0,0.0,60,0.00,CLR,,0.00,WeatherDisplay:10.37,2013-03-31 07:04:00,
2013-03-31 03:09:00,34.8,22.4,30.11,NNE,18,0.0,0.0,60,0.00,CLR,,0.00,WeatherDisplay:10.37,2013-03-31 07:09:00,
2013-03-31 03:15:00,34.7,22.7,30.11,NNE,18,0.0,0.0,61,0.00,CLR,,0.00,WeatherDisplay:10.37,2013-03-31 07:15:00,
2013-03-31 03:20:00,34.5,22.8,30.11,NNE,18,0.0,0.0,62,0.00,CLR,,0.00,WeatherDisplay:10.37,2013-03-31 07:20:00,
2013-03-31 03:26:00,34.6,22.9,30.11,NNE,18,0.0,0.0,62,0.00,CLR,,0.00,WeatherDisplay:10.37,2013-03-31 07:26:00,
2013-03-31 03:32:00,34.5,23.2,30.12,NNE,18,0.0,0.0,63,0.00,CLR,,0.00,WeatherDisplay:10.37,2013-03-31 07:32:00,
2013-03-31 03:37:00,34.3,23.0,30.12,NNE,18,0.0,0.0,63,0.00,CLR,,0.00,WeatherDisplay:10.37,2013-03-31 07:37:00,
2013-03-31 03:42:00,34.2,22.9,30.12,NNE,18,0.0,0.0,63,0.00,CLR,,0.00,WeatherDisplay:10.37,2013-03-31 07:42:00,
2013-03-31 03:48:00,34.0,22.8,30.12,NNE,18,0.0,0.0,63,0.00,CLR,,0.00,WeatherDisplay:10.37,2013-03-31 07:48:00,
2013-03-31 03:54:00,33.8,22.6,30.11,NNE,18,0.0,0.0,63,0.00,CLR,,0.00,WeatherDisplay:10.37,2013-03-31 07:54:00,
2013-03-31 03:59:00,33.9,22.7,30.11,NNE,18,0.0,0.0,63,0.00,CLR,,0.00,WeatherDisplay:10.37,2013-03-31 07:59:00,
2013-03-31 04:04:00,33.7,22.8,30.11,NNE,18,0.0,0.0,64,0.00,CLR,,0.00,WeatherDisplay:10.37,2013-03-31 08:04:00,
2013-03-31 04:09:00,33.7,22.8,30.11,NNE,18,0.0,0.0,64,0.00,CLR,,0.00,WeatherDisplay:10.37,2013-03-31 08:09:00,
2013-03-31 04:14:00,33.4,22.9,30.11,NNE,18,0.0,0.0,65,0.00,CLR,,0.00,WeatherDisplay:10.37,2013-03-31 08:14:00,
2013-03-31 04:19:00,33.3,22.8,30.11,NNE,18,0.0,0.0,65,0.00,CLR,,0.00,WeatherDisplay:10.37,2013-03-31 08:19:00,
2013-03-31 04:24:00,33.3,23.2,30.11,NNE,18,0.0,0.0,66,0.00,CLR,,0.00,WeatherDisplay:10.37,2013-03-31 08:24:00,
2013-03-31 04:29:00,33.3,23.2,30.11,NNE,18,0.0,0.0,66,0.00,CLR,,0.00,WeatherDisplay:10.37,2013-03-31 08:29:00,
2013-03-31 04:34:00,33.1,23.0,30.11,NNE,18,0.0,0.0,66,0.00,CLR,,0.00,WeatherDisplay:10.37,2013-03-31 08:34:00,
2013-03-31 04:39:00,33.0,22.9,30.11,NNE,18,0.0,0.0,66,0.00,CLR,,0.00,WeatherDisplay:10.37,2013-03-31 08:39:00,
2013-03-31 04:44:00,32.8,22.7,30.11,NNE,18,0.0,0.0,66,0.00,CLR,,0.00,WeatherDisplay:10.37,2013-03-31 08:44:00,
2013-03-31 04:49:00,32.8,22.4,30.11,NNE,18,0.0,0.0,65,0.00,CLR,,0.00,WeatherDisplay:10.37,2013-03-31 08:49:00,
2013-03-31 04:54:00,32.9,22.5,30.11,NNE,18,0.0,0.0,65,0.00,CLR,,0.00,WeatherDisplay:10.37,2013-03-31 08:54:00,
2013-03-31 04:59:00,32.7,22.3,30.11,NNE,18,0.0,0.0,65,0.00,CLR,,0.00,WeatherDisplay:10.37,2013-03-31 08:59:00,
2013-03-31 05:04:00,32.7,22.3,30.11,NNE,18,0.0,0.0,65,0.00,CLR,,0.00,WeatherDisplay:10.37,2013-03-31 09:04:00,
2013-03-31 05:09:00,32.7,22.3,30.11,NNE,18,0.0,0.0,65,0.00,CLR,,0.00,WeatherDisplay:10.37,2013-03-31 09:09:00,
2013-03-31 05:14:00,32.8,22.4,30.11,NNE,18,0.0,0.0,65,0.00,CLR,,0.00,WeatherDisplay:10.37,2013-03-31 09:14:00,
2013-03-31 05:19:00,32.6,22.5,30.11,NNE,18,0.0,0.0,66,0.00,CLR,,0.00,WeatherDisplay:10.37,2013-03-31 09:19:00,
2013-03-31 05:24:00,32.6,22.5,30.11,NNE,18,0.0,0.0,66,0.00,CLR,,0.00,WeatherDisplay:10.37,2013-03-31 09:24:00,
2013-03-31 05:29:00,32.3,22.6,30.11,NNE,18,0.0,0.0,67,0.00,CLR,,0.00,WeatherDisplay:10.37,2013-03-31 09:29:00,
2013-03-31 05:34:00,32.3,23.0,30.11,NNE,18,0.0,0.0,68,0.00,CLR,,0.00,WeatherDisplay:10.37,2013-03-31 09:34:00,
2013-03-31 05:39:00,32.2,22.9,30.11,NNE,18,0.0,0.0,68,0.00,CLR,,0.00,WeatherDisplay:10.37,2013-03-31 09:39:00,
2013-03-31 05:44:00,32.1,22.8,30.11,NNE,18,0.0,0.0,68,0.00,CLR,,0.00,WeatherDisplay:10.37,2013-03-31 09:44:00,
2013-03-31 05:49:00,32.4,23.0,30.11,NNE,18,0.0,0.0,68,0.00,CLR,,0.00,WeatherDisplay:10.37,2013-03-31 09:49:00,
2013-03-31 05:54:00,32.0,22.7,30.11,NNE,18,0.0,0.0,68,0.00,CLR,,0.00,WeatherDisplay:10.37,2013-03-31 09:54:00,
2013-03-31 05:59:00,32.2,22.9,30.11,NNE,18,0.0,0.0,68,0.00,CLR,,0.00,WeatherDisplay:10.37,2013-03-31 09:59:00,
2013-03-31 06:04:00,32.1,22.8,30.11,NNE,18,0.0,0.0,68,0.00,CLR,,0.00,WeatherDisplay:10.37,2013-03-31 10:04:00,
2013-03-31 06:09:00,32.1,22.4,30.11,NNE,18,0.0,0.0,67,0.00,CLR,,0.00,WeatherDisplay:10.37,2013-03-31 10:09:00,
2013-03-31 06:14:00,32.2,22.1,30.11,NNE,18,0.0,0.0,66,0.00,CLR,,0.00,WeatherDisplay:10.37,2013-03-31 10:14:00,
2013-03-31 06:19:00,32.4,22.3,30.11,NNE,18,0.0,0.0,66,0.00,CLR,,0.00,WeatherDisplay:10.37,2013-03-31 10:19:00,
2013-03-31 06:24:00,32.4,22.3,30.11,NNE,18,0.0,0.0,66,0.00,CLR,,0.00,WeatherDisplay:10.37,2013-03-31 10:24:00,
2013-03-31 06:29:00,32.4,22.0,30.11,NNE,18,0.0,0.0,65,0.00,CLR,,0.00,WeatherDisplay:10.37,2013-03-31 10:29:00,
2013-03-31 06:34:00,32.9,22.5,30.11,NNE,18,0.0,0.0,65,0.00,CLR,,0.00,WeatherDisplay:10.37,2013-03-31 10:34:00,
2013-03-31 06:39:00,32.5,22.4,30.11,NNE,18,0.0,0.0,66,0.00,CLR,,0.00,WeatherDisplay:10.37,2013-03-31 10:39:00,
2013-03-31 06:44:00,32.3,22.2,30.11,NNE,18,0.0,0.0,66,0.00,CLR,,0.00,WeatherDisplay:10.37,2013-03-31 10:44:00,
2013-03-31 06:49:00,32.2,22.1,30.10,NNE,18,0.0,0.0,66,0.00,CLR,,0.00,WeatherDisplay:10.37,2013-03-31 10:49:00,
2013-03-31 06:54:00,32.1,22.1,30.10,NNE,18,0.0,0.0,66,0.00,CLR,,0.00,WeatherDisplay:10.37,2013-03-31 10:54:00,
2013-03-31 06:59:00,32.4,22.0,30.10,NNE,18,0.0,0.0,65,0.00,CLR,,0.00,WeatherDisplay:10.37,2013-03-31 10:59:00,
2013-03-31 07:04:00,32.6,22.5,30.10,NNE,18,0.0,0.0,66,0.00,CLR,,0.00,WeatherDisplay:10.37,2013-03-31 11:04:00,
2013-03-31 07:09:00,32.8,22.4,30.10,NNE,18,0.0,0.0,65,0.00,CLR,,0.00,WeatherDisplay:10.37,2013-03-31 11:09:00,
2013-03-31 07:14:00,32.9,23.2,30.10,NNE,18,0.0,0.0,67,0.00,CLR,,0.00,WeatherDisplay:10.37,2013-03-31 11:14:00,
2013-03-31 07:19:00,33.1,23.4,30.10,NNE,18,0.0,0.0,67,0.00,CLR,,0.00,WeatherDisplay:10.37,2013-03-31 11:19:00,
2013-03-31 07:24:00,33.3,23.2,30.10,NNE,18,0.0,0.0,66,0.00,CLR,,0.00,WeatherDisplay:10.37,2013-03-31 11:24:00,
2013-03-31 07:29:00,33.4,22.9,30.09,NNE,18,0.0,0.0,65,0.00,CLR,,0.00,WeatherDisplay:10.37,2013-03-31 11:29:00,
2013-03-31 07:34:00,33.7,22.8,30.09,NNE,18,0.0,0.0,64,0.00,CLR,,0.00,WeatherDisplay:10.37,2013-03-31 11:34:00,
2013-03-31 07:39:00,33.7,22.8,30.09,NNE,18,0.0,0.0,64,0.00,CLR,,0.00,WeatherDisplay:10.37,2013-03-31 11:39:00,
2013-03-31 07:44:00,34.2,24.1,30.09,NNE,18,0.0,0.0,66,0.00,CLR,,0.00,WeatherDisplay:10.37,2013-03-31 11:44:00,
2013-03-31 07:49:00,34.3,25.9,30.08,NNE,18,0.0,0.0,71,0.00,CLR,,0.00,WeatherDisplay:10.37,2013-03-31 11:49:00,
2013-03-31 07:54:00,34.9,26.8,30.08,NNE,18,0.0,0.0,72,0.00,CLR,,0.00,WeatherDisplay:10.37,2013-03-31 11:54:00,
2013-03-31 07:59:00,34.9,26.8,30.08,NNE,18,0.0,0.0,72,0.00,CLR,,0.00,WeatherDisplay:10.37,2013-03-31 11:59:00,
2013-03-31 08:04:00,35.1,27.0,30.08,NNE,18,0.0,0.0,72,0.00,CLR,,0.00,WeatherDisplay:10.37,2013-03-31 12:04:00,
2013-03-31 08:09:00,35.4,27.0,30.08,NNE,18,0.0,0.0,71,0.00,CLR,,0.00,WeatherDisplay:10.37,2013-03-31 12:09:00,
2013-03-31 08:14:00,35.7,27.6,30.08,NNE,18,0.0,0.0,72,0.00,CLR,,0.00,WeatherDisplay:10.37,2013-03-31 12:14:00,
2013-03-31 08:19:00,36.1,28.0,30.08,NNE,18,0.0,0.0,72,0.00,CLR,,0.00,WeatherDisplay:10.37,2013-03-31 12:19:00,
2013-03-31 08:24:00,36.5,28.4,30.07,North,0,0.0,0.0,72,0.00,,,0.00,WeatherDisplay:10.37,2013-03-31 12:24:00,
2013-03-31 08:29:00,36.3,27.5,30.07,North,0,0.0,0.0,70,0.00,,,0.00,WeatherDisplay:10.37,2013-03-31 12:29:00,
2013-03-31 08:34:00,36.5,26.3,30.07,North,0,0.0,0.0,66,0.00,,,0.00,WeatherDisplay:10.37,2013-03-31 12:34:00,
2013-03-31 08:39:00,36.4,25.8,30.07,North,0,0.0,0.0,65,0.00,,,0.00,WeatherDisplay:10.37,2013-03-31 12:39:00,
2013-03-31 08:44:00,36.7,26.1,30.07,North,0,0.0,0.0,65,0.00,,,0.00,WeatherDisplay:10.37,2013-03-31 12:44:00,
2013-03-31 08:49:00,36.7,26.4,30.06,North,0,0.0,0.0,66,0.00,,,0.00,WeatherDisplay:10.37,2013-03-31 12:49:00,
2013-03-31 08:54:00,36.9,27.0,30.06,North,0,0.0,0.0,67,0.00,,,0.00,WeatherDisplay:10.37,2013-03-31 12:54:00,
2013-03-31 08:59:00,37.3,27.0,30.06,North,0,0.0,0.0,66,0.00,,,0.00,WeatherDisplay:10.37,2013-03-31 12:59:00,
2013-03-31 09:04:00,37.6,27.7,30.06,North,0,0.0,0.0,67,0.00,,,0.00,WeatherDisplay:10.37,2013-03-31 13:04:00,
2013-03-31 09:09:00,38.1,27.8,30.06,North,0,0.0,0.0,66,0.00,,,0.00,WeatherDisplay:10.37,2013-03-31 13:09:00,
2013-03-31 09:14:00,38.7,28.3,30.05,North,0,0.0,0.0,66,0.00,,,0.00,WeatherDisplay:10.37,2013-03-31 13:14:00,
2013-03-31 09:19:00,39.2,28.8,30.05,North,0,0.0,0.0,66,0.00,,,0.00,WeatherDisplay:10.37,2013-03-31 13:19:00,
2013-03-31 09:24:00,40.0,28.8,30.05,North,0,0.0,0.0,64,0.00,,,0.00,WeatherDisplay:10.37,2013-03-31 13:24:00,
2013-03-31 09:29:00,41.4,27.8,30.05,ESE,110,8.1,8.1,58,0.00,,,0.00,WeatherDisplay:10.37,2013-03-31 13:29:00,
2013-03-31 09:34:00,42.3,28.2,30.05,South,182,6.9,6.9,57,0.00,,,0.00,WeatherDisplay:10.37,2013-03-31 13:34:00,
2013-03-31 09:39:00,43.4,28.8,30.05,SE,137,8.1,8.1,56,0.00,,,0.00,WeatherDisplay:10.37,2013-03-31 13:39:00,
2013-03-31 09:44:00,44.2,29.1,30.05,South,172,9.2,9.2,55,0.00,,,0.00,WeatherDisplay:10.37,2013-03-31 13:44:00,
2013-03-31 09:49:00,45.0,29.4,30.05,SSW,212,4.6,4.6,54,0.00,,,0.00,WeatherDisplay:10.37,2013-03-31 13:49:00,
2013-03-31 09:54:00,46.0,29.4,30.04,South,181,9.2,9.2,52,0.00,,,0.00,WeatherDisplay:10.37,2013-03-31 13:54:00,
2013-03-31 09:59:00,46.7,29.6,30.04,SE,136,1.2,0.0,51,0.00,,,0.00,WeatherDisplay:10.37,2013-03-31 13:59:00,
2013-03-31 10:04:00,47.8,30.1,30.04,SSE,164,0.0,0.0,50,0.00,,,0.00,WeatherDisplay:10.37,2013-03-31 14:04:00,
2013-03-31 10:09:00,48.4,29.6,30.04,East,82,3.5,3.5,48,0.00,,,0.00,WeatherDisplay:10.37,2013-03-31 14:09:00,
2013-03-31 10:14:00,48.9,30.1,30.04,ESE,113,0.0,0.0,48,0.00,,,0.00,WeatherDisplay:10.37,2013-03-31 14:14:00,
2013-03-31 10:20:00,50.0,30.6,30.04,South,189,3.5,3.5,47,0.00,CLR,,0.00,WeatherDisplay:10.37,2013-03-31 14:20:00,
2013-03-31 10:25:00,50.3,30.9,30.03,South,189,1.7,1.7,47,0.00,CLR,,0.00,WeatherDisplay:10.37,2013-03-31 14:25:00,
2013-03-31 10:30:00,50.9,29.8,30.03,WNW,298,12.7,12.7,44,0.00,CLR,,0.00,WeatherDisplay:10.37,2013-03-31 14:30:00,
2013-03-31 10:35:00,51.7,31.1,30.03,WSW,248,3.5,3.5,45,0.00,CLR,,0.00,WeatherDisplay:10.37,2013-03-31 14:35:00,
2013-03-31 10:40:00,52.6,30.8,30.03,SSE,158,15.0,15.0,43,0.00,CLR,,0.00,WeatherDisplay:10.37,2013-03-31 14:40:00,
2013-03-31 10:45:00,52.8,30.9,30.03,WNW,291,9.2,9.2,43,0.00,CLR,,0.00,WeatherDisplay:10.37,2013-03-31 14:45:00,
2013-03-31 10:50:00,53.2,30.7,30.02,WSW,243,9.2,9.2,42,0.00,CLR,,0.00,WeatherDisplay:10.37,2013-03-31 14:50:00,
2013-03-31 10:55:00,53.7,30.6,30.02,South,189,8.1,8.1,41,0.00,CLR,,0.00,WeatherDisplay:10.37,2013-03-31 14:55:00,
2013-03-31 11:00:00,53.7,30.6,30.01,South,178,6.9,6.9,41,0.00,CLR,,0.00,WeatherDisplay:10.37,2013-03-31 15:00:00,
2013-03-31 11:05:00,54.1,31.5,30.01,WSW,240,6.9,6.9,42,0.00,CLR,,0.00,WeatherDisplay:10.37,2013-03-31 15:05:00,
2013-03-31 11:10:00,54.7,30.9,30.01,WSW,239,8.1,8.1,40,0.00,CLR,,0.00,WeatherDisplay:10.37,2013-03-31 15:10:00,
2013-03-31 11:15:00,54.8,30.3,30.01,SW,224,10.4,10.4,39,0.00,CLR,,0.00,WeatherDisplay:10.37,2013-03-31 15:15:00,
2013-03-31 11:20:00,54.5,30.1,30.01,SE,134,8.1,8.1,39,0.00,CLR,,0.00,WeatherDisplay:10.37,2013-03-31 15:20:00,
2013-03-31 11:25:00,55.0,31.1,30.01,WSW,246,8.1,8.1,40,0.00,CLR,,0.00,WeatherDisplay:10.37,2013-03-31 15:25:00,
2013-03-31 11:30:00,55.0,30.5,30.00,WNW,282,6.9,6.9,39,0.00,CLR,,0.00,WeatherDisplay:10.37,2013-03-31 15:30:00,
2013-03-31 11:36:00,55.0,29.9,30.00,South,175,10.4,10.4,38,0.00,CLR,,0.00,WeatherDisplay:10.37,2013-03-31 15:36:00,
2013-03-31 11:41:00,54.9,29.1,30.00,ESE,106,9.2,9.2,37,0.00,CLR,,0.00,WeatherDisplay:10.37,2013-03-31 15:41:00,
2013-03-31 11:47:00,54.7,28.3,30.00,South,189,6.9,6.9,36,0.00,CLR,,0.00,WeatherDisplay:10.37,2013-03-31 15:47:00,
2013-03-31 11:53:00,54.6,27.5,29.99,SSE,151,8.1,8.1,35,0.00,CLR,,0.00,WeatherDisplay:10.37,2013-03-31 15:53:00,
2013-03-31 11:58:00,54.9,27.8,29.99,SSW,200,12.7,12.7,35,0.00,CLR,,0.00,WeatherDisplay:10.37,2013-03-31 15:58:00,
2013-03-31 12:03:00,54.8,28.4,29.99,South,185,13.8,13.8,36,0.00,CLR,,0.00,WeatherDisplay:10.37,2013-03-31 16:03:00,
2013-03-31 12:08:00,55.2,28.7,29.99,South,179,9.2,9.2,36,0.00,CLR,,0.00,WeatherDisplay:10.37,2013-03-31 16:08:00,
2013-03-31 12:13:00,55.1,27.9,29.99,SSW,193,10.4,10.4,35,0.00,CLR,,0.00,WeatherDisplay:10.37,2013-03-31 16:13:00,
2013-03-31 12:18:00,55.0,27.1,29.99,SSE,158,13.8,13.8,34,0.00,CLR,,0.00,WeatherDisplay:10.37,2013-03-31 16:18:00,
2013-03-31 12:24:00,55.1,27.2,29.98,SSE,155,11.5,11.5,34,0.00,CLR,,0.00,WeatherDisplay:10.37,2013-03-31 16:24:00,
2013-03-31 12:29:00,54.8,27.0,29.98,South,176,13.8,13.8,34,0.00,CLR,,0.00,WeatherDisplay:10.37,2013-03-31 16:29:00,
2013-03-31 12:34:00,55.2,28.0,29.98,SW,230,13.8,13.8,35,0.00,CLR,,0.00,WeatherDisplay:10.37,2013-03-31 16:34:00,
2013-03-31 12:39:00,55.1,27.9,29.98,South,169,20.7,20.7,35,0.00,CLR,,0.00,WeatherDisplay:10.37,2013-03-31 16:39:00,
2013-03-31 12:44:00,55.2,29.4,29.97,SW,217,15.0,15.0,37,0.00,CLR,,0.00,WeatherDisplay:10.37,2013-03-31 16:44:00,
2013-03-31 12:49:00,55.6,29.1,29.97,SSE,162,9.2,9.2,36,0.00,CLR,,0.00,WeatherDisplay:10.37,2013-03-31 16:49:00,
2013-03-31 12:54:00,55.4,29.6,29.97,South,169,8.1,8.1,37,0.00,CLR,,0.00,WeatherDisplay:10.37,2013-03-31 16:54:00,
2013-03-31 12:59:00,55.2,29.4,29.96,SSE,154,10.4,10.4,37,0.00,CLR,,0.00,WeatherDisplay:10.37,2013-03-31 16:59:00,
2013-03-31 13:04:00,55.0,29.2,29.96,SSE,164,11.5,11.5,37,0.00,CLR,,0.00,WeatherDisplay:10.37,2013-03-31 17:04:00,
2013-03-31 13:09:00,55.0,29.2,29.96,NE,34,16.1,16.1,37,0.00,CLR,,0.00,WeatherDisplay:10.37,2013-03-31 17:09:00,
2013-03-31 13:15:00,55.0,28.5,29.95,SSW,196,12.7,12.7,36,0.00,CLR,,0.00,WeatherDisplay:10.37,2013-03-31 17:15:00,
2013-03-31 13:20:00,55.2,29.4,29.95,SSE,168,9.2,9.2,37,0.00,CLR,,0.00,WeatherDisplay:10.37,2013-03-31 17:20:00,
2013-03-31 13:25:00,55.2,28.7,29.94,SSW,205,10.4,10.4,36,0.00,CLR,,0.00,WeatherDisplay:10.37,2013-03-31 17:25:00,
2013-03-31 13:30:00,55.0,27.9,29.95,SSE,164,17.3,17.3,35,0.00,CLR,,0.00,WeatherDisplay:10.37,2013-03-31 17:30:00,
2013-03-31 13:35:00,54.7,28.3,29.94,SSW,202,9.2,11.5,36,0.00,CLR,,0.00,WeatherDisplay:10.37,2013-03-31 17:35:00,
2013-03-31 13:40:00,54.2,27.8,29.94,South,185,11.5,11.5,36,0.00,CLR,,0.00,WeatherDisplay:10.37,2013-03-31 17:40:00,
2013-03-31 13:45:00,54.1,28.4,29.94,South,186,13.8,13.8,37,0.00,CLR,,0.00,WeatherDisplay:10.37,2013-03-31 17:45:00,
2013-03-31 13:50:00,54.2,29.2,29.93,South,172,10.4,10.4,38,0.00,CLR,,0.00,WeatherDisplay:10.37,2013-03-31 17:50:00,
2013-03-31 13:55:00,54.3,28.6,29.93,South,169,16.1,16.1,37,0.00,CLR,,0.00,WeatherDisplay:10.37,2013-03-31 17:55:00,
2013-03-31 14:00:00,54.2,29.2,29.92,SSE,155,9.2,9.2,38,0.00,CLR,,0.00,WeatherDisplay:10.37,2013-03-31 18:00:00,
2013-03-31 14:05:00,54.1,29.1,29.92,South,181,16.1,16.1,38,0.00,CLR,,0.00,WeatherDisplay:10.37,2013-03-31 18:05:00,
2013-03-31 14:10:00,54.1,29.7,29.91,South,172,18.4,18.4,39,0.00,CLR,,0.00,WeatherDisplay:10.37,2013-03-31 18:10:00,
2013-03-31 14:15:00,54.1,30.3,29.91,South,179,16.1,16.1,40,0.00,CLR,,0.00,WeatherDisplay:10.37,2013-03-31 18:15:00,
2013-03-31 14:20:00,54.3,30.5,29.91,SW,217,19.6,19.6,40,0.00,CLR,,0.00,WeatherDisplay:10.37,2013-03-31 18:20:00,
2013-03-31 14:25:00,53.7,30.6,29.91,South,171,17.3,17.3,41,0.00,CLR,,0.00,WeatherDisplay:10.37,2013-03-31 18:25:00,
2013-03-31 14:30:00,53.7,30.6,29.91,South,182,18.4,18.4,41,0.00,CLR,,0.00,WeatherDisplay:10.37,2013-03-31 18:30:00,
2013-03-31 14:35:00,53.7,30.6,29.91,SE,140,16.1,16.1,41,0.00,CLR,,0.00,WeatherDisplay:10.37,2013-03-31 18:35:00,
2013-03-31 14:40:00,53.6,31.1,29.91,SW,222,18.4,18.4,42,0.00,CLR,,0.00,WeatherDisplay:10.37,2013-03-31 18:40:00,
2013-03-31 14:45:00,53.3,31.4,29.91,NW,304,13.8,13.8,43,0.00,CLR,,0.00,WeatherDisplay:10.37,2013-03-31 18:45:00,
2013-03-31 14:50:00,52.9,31.6,29.91,South,174,18.4,18.4,44,0.00,CLR,,0.00,WeatherDisplay:10.37,2013-03-31 18:50:00,
2013-03-31 14:55:00,52.8,31.5,29.91,SSW,198,12.7,12.7,44,0.00,CLR,,0.00,WeatherDisplay:10.37,2013-03-31 18:55:00,
2013-03-31 15:00:00,52.6,31.3,29.91,SSW,192,16.1,16.1,44,0.00,CLR,,0.00,WeatherDisplay:10.37,2013-03-31 19:00:00,
2013-03-31 15:05:00,52.4,31.1,29.91,SW,223,15.0,15.0,44,0.00,CLR,,0.00,WeatherDisplay:10.37,2013-03-31 19:05:00,
2013-03-31 15:10:00,52.4,31.7,29.91,South,189,15.0,15.0,45,0.00,CLR,,0.00,WeatherDisplay:10.37,2013-03-31 19:10:00,
2013-03-31 15:15:00,52.3,31.0,29.91,SE,126,13.8,13.8,44,0.00,CLR,,0.00,WeatherDisplay:10.37,2013-03-31 19:15:00,
2013-03-31 15:20:00,51.9,30.7,29.90,South,172,15.0,15.0,44,0.00,CLR,,0.00,WeatherDisplay:10.37,2013-03-31 19:20:00,
2013-03-31 15:25:00,51.9,30.7,29.90,SSW,198,9.2,9.2,44,0.00,CLR,,0.00,WeatherDisplay:10.37,2013-03-31 19:25:00,
2013-03-31 15:30:00,52.1,30.3,29.90,WSW,237,9.2,9.2,43,0.00,CLR,,0.00,WeatherDisplay:10.37,2013-03-31 19:30:00,
2013-03-31 15:35:00,51.9,30.7,29.90,SSE,160,17.3,17.3,44,0.00,CLR,,0.00,WeatherDisplay:10.37,2013-03-31 19:35:00,
2013-03-31 15:40:00,51.8,31.2,29.91,SSE,158,15.0,15.0,45,0.00,CLR,,0.00,WeatherDisplay:10.37,2013-03-31 19:40:00,
2013-03-31 15:45:00,51.6,30.4,29.90,SSE,152,17.3,17.3,44,0.00,CLR,,0.00,WeatherDisplay:10.37,2013-03-31 19:45:00,
2013-03-31 15:50:00,51.3,31.2,29.90,SW,224,9.2,9.5,46,0.00,CLR,,0.00,WeatherDisplay:10.37,2013-03-31 19:50:00,
2013-03-31 15:57:00,51.4,31.9,29.90,SSE,164,8.1,8.1,47,0.00,CLR,,0.00,WeatherDisplay:10.37,2013-03-31 19:57:00,
2013-03-31 16:02:00,50.8,31.3,29.89,SSW,196,10.4,10.4,47,0.00,CLR,,0.00,WeatherDisplay:10.37,2013-03-31 20:02:00,
2013-03-31 16:07:00,51.1,32.1,29.89,South,171,8.1,8.1,48,0.00,CLR,,0.00,WeatherDisplay:10.37,2013-03-31 20:07:00,
2013-03-31 16:13:00,50.9,32.4,29.89,South,176,13.8,13.8,49,0.00,CLR,,0.00,WeatherDisplay:10.37,2013-03-31 20:13:00,
2013-03-31 16:19:00,50.8,33.3,29.89,SSE,164,10.4,10.4,51,0.00,CLR,,0.00,WeatherDisplay:10.37,2013-03-31 20:19:00,
2013-03-31 16:24:00,50.7,33.7,29.89,SSE,167,9.2,9.2,52,0.00,CLR,,0.00,WeatherDisplay:10.37,2013-03-31 20:24:00,
2013-03-31 16:30:00,50.5,34.0,29.88,SE,136,8.1,8.1,53,0.00,CLR,,0.00,WeatherDisplay:10.37,2013-03-31 20:30:00,
2013-03-31 16:35:00,50.5,34.0,29.88,ESE,113,3.5,3.5,53,0.00,CLR,,0.00,WeatherDisplay:10.37,2013-03-31 20:35:00,
2013-03-31 16:40:00,50.5,34.0,29.88,SSE,161,12.7,12.7,53,0.00,CLR,,0.00,WeatherDisplay:10.37,2013-03-31 20:40:00,
2013-03-31 16:45:00,50.5,34.0,29.88,SSE,147,8.1,8.1,53,0.00,OVC,,0.00,WeatherDisplay:10.37,2013-03-31 20:45:00,
2013-03-31 16:51:00,50.3,33.8,29.87,SE,133,3.5,4.3,53,0.00,OVC,,0.00,WeatherDisplay:10.37,2013-03-31 20:51:00,
2013-03-31 16:57:00,50.2,33.8,29.86,ESE,112,5.8,5.8,53,0.00,OVC,,0.00,WeatherDisplay:10.37,2013-03-31 20:57:00,
2013-03-31 17:03:00,50.3,34.3,29.86,South,176,5.7,5.7,54,0.00,OVC,,0.00,WeatherDisplay:10.37,2013-03-31 21:03:00,
2013-03-31 17:08:00,50.1,34.1,29.86,SE,130,8.1,8.1,54,0.00,OVC,,0.00,WeatherDisplay:10.37,2013-03-31 21:08:00,
2013-03-31 17:13:00,50.0,34.0,29.86,South,172,8.1,8.1,54,0.00,OVC,,0.00,WeatherDisplay:10.37,2013-03-31 21:13:00,
2013-03-31 17:18:00,50.2,34.2,29.86,ESE,109,0.0,0.0,54,0.00,OVC,,0.00,WeatherDisplay:10.37,2013-03-31 21:18:00,
2013-03-31 17:23:00,50.0,34.0,29.86,South,178,4.6,4.6,54,0.00,OVC,,0.00,WeatherDisplay:10.37,2013-03-31 21:23:00,
2013-03-31 17:28:00,50.1,33.7,29.86,SE,141,9.2,9.2,53,0.00,OVC,,0.00,WeatherDisplay:10.37,2013-03-31 21:28:00,
2013-03-31 17:33:00,50.2,33.8,29.87,SE,143,5.8,5.8,53,0.00,OVC,,0.00,WeatherDisplay:10.37,2013-03-31 21:33:00,
2013-03-31 17:38:00,50.1,33.2,29.86,SSE,158,9.2,9.2,52,0.00,OVC,,0.00,WeatherDisplay:10.37,2013-03-31 21:38:00,
2013-03-31 17:43:00,50.5,33.6,29.86,SSE,155,8.1,8.1,52,0.00,OVC,,0.00,WeatherDisplay:10.37,2013-03-31 21:43:00,
2013-03-31 17:49:00,50.5,34.0,29.85,South,186,10.4,10.4,53,0.00,OVC,,0.00,WeatherDisplay:10.37,2013-03-31 21:49:00,
2013-03-31 17:54:00,50.2,34.2,29.86,SE,141,9.2,9.2,54,0.00,OVC,,0.00,WeatherDisplay:10.37,2013-03-31 21:54:00,
2013-03-31 18:00:00,50.0,34.9,29.86,SSE,148,10.4,10.4,56,0.00,OVC,,0.00,WeatherDisplay:10.37,2013-03-31 22:00:00,
2013-03-31 18:05:00,50.1,35.5,29.85,South,175,5.8,5.8,57,0.00,OVC,,0.00,WeatherDisplay:10.37,2013-03-31 22:05:00,
2013-03-31 18:10:00,49.9,35.3,29.85,SSE,167,11.6,11.6,57,0.00,OVC,,0.00,WeatherDisplay:10.37,2013-03-31 22:10:00,
2013-03-31 18:16:00,49.5,35.4,29.85,SSE,155,10.4,10.4,58,0.00,OVC,,0.00,WeatherDisplay:10.37,2013-03-31 22:16:00,
2013-03-31 18:21:00,49.3,35.2,29.85,SSE,161,15.5,15.5,58,0.00,OVC,,0.00,WeatherDisplay:10.37,2013-03-31 22:21:00,
2013-03-31 18:26:00,49.2,35.5,29.84,SE,141,9.2,9.2,59,0.00,OVC,,0.00,WeatherDisplay:10.37,2013-03-31 22:26:00,
2013-03-31 18:31:00,49.3,36.0,29.84,SSE,157,11.5,11.5,60,0.00,OVC,,0.00,WeatherDisplay:10.37,2013-03-31 22:31:00,
2013-03-31 18:37:00,49.1,36.3,29.84,SSE,155,9.2,9.2,61,0.00,OVC,,0.00,WeatherDisplay:10.37,2013-03-31 22:37:00,
2013-03-31 18:42:00,49.1,37.1,29.84,ESE,107,2.3,2.3,63,0.00,OVC,,0.00,WeatherDisplay:10.37,2013-03-31 22:42:00,
2013-03-31 18:47:00,48.8,37.2,29.83,SE,134,10.4,10.4,64,0.00,OVC,,0.00,WeatherDisplay:10.37,2013-03-31 22:47:00,
2013-03-31 18:52:00,48.6,37.4,29.83,ESE,110,9.2,9.2,65,0.00,OVC,,0.00,WeatherDisplay:10.37,2013-03-31 22:52:00,
2013-03-31 18:58:00,48.1,36.9,29.83,SE,130,6.9,6.9,65,0.00,OVC,,0.00,WeatherDisplay:10.37,2013-03-31 22:58:00,
2013-03-31 19:03:00,48.2,37.4,29.82,East,97,4.6,4.6,66,0.00,OVC,,0.00,WeatherDisplay:10.37,2013-03-31 23:03:00,
2013-03-31 19:08:00,47.9,37.1,29.82,SE,140,4.6,4.6,66,0.00,OVC,,0.00,WeatherDisplay:10.37,2013-03-31 23:08:00,
2013-03-31 19:13:00,47.9,37.1,29.81,SE,145,6.9,6.9,66,0.00,OVC,,0.00,WeatherDisplay:10.37,2013-03-31 23:13:00,
2013-03-31 19:18:00,47.9,36.7,29.81,ESE,109,6.5,6.5,65,0.00,OVC,,0.00,WeatherDisplay:10.37,2013-03-31 23:18:00,
2013-03-31 19:23:00,48.0,36.8,29.81,ESE,106,5.8,5.8,65,0.00,OVC,,0.00,WeatherDisplay:10.37,2013-03-31 23:23:00,
2013-03-31 19:28:00,47.9,37.1,29.80,ESE,117,8.1,8.1,66,0.00,OVC,,0.00,WeatherDisplay:10.37,2013-03-31 23:28:00,
2013-03-31 19:33:00,47.8,37.0,29.80,SSE,155,6.9,6.9,66,0.00,OVC,,0.00,WeatherDisplay:10.37,2013-03-31 23:33:00,
2013-03-31 19:38:00,47.9,37.1,29.80,ESE,117,5.8,5.8,66,0.00,OVC,,0.00,WeatherDisplay:10.37,2013-03-31 23:38:00,
2013-03-31 19:43:00,47.9,37.1,29.79,SE,130,8.1,8.1,66,0.00,OVC,,0.00,WeatherDisplay:10.37,2013-03-31 23:43:00,
2013-03-31 19:48:00,47.8,37.0,29.79,ESE,117,9.2,9.2,66,0.00,OVC,,0.00,WeatherDisplay:10.37,2013-03-31 23:48:00,
2013-03-31 19:53:00,47.8,37.0,29.79,ESE,119,6.9,6.9,66,0.00,OVC,,0.00,WeatherDisplay:10.37,2013-03-31 23:53:00,
2013-03-31 19:58:00,47.7,36.9,29.78,ESE,117,10.4,10.4,66,0.00,OVC,,0.00,WeatherDisplay:10.37,2013-03-31 23:58:00,
2013-03-31 20:03:00,47.8,37.0,29.78,SE,130,6.9,6.9,66,0.00,OVC,,0.00,WeatherDisplay:10.37,2013-04-01 00:03:00,
2013-03-31 20:08:00,47.7,37.3,29.77,ESE,103,8.1,8.1,67,0.00,OVC,,0.00,WeatherDisplay:10.37,2013-04-01 00:08:00,
2013-03-31 20:13:00,47.6,37.2,29.77,SE,133,11.5,11.5,67,0.00,OVC,,0.00,WeatherDisplay:10.37,2013-04-01 00:13:00,
2013-03-31 20:18:00,47.5,37.1,29.76,ESE,123,6.9,6.9,67,0.00,OVC,,0.00,WeatherDisplay:10.37,2013-04-01 00:18:00,
2013-03-31 20:23:00,47.6,37.2,29.76,ESE,123,9.2,9.2,67,0.00,OVC,,0.00,WeatherDisplay:10.37,2013-04-01 00:23:00,
2013-03-31 20:28:00,47.6,37.6,29.75,SE,128,9.2,9.2,68,0.00,OVC,,0.00,WeatherDisplay:10.37,2013-04-01 00:28:00,
2013-03-31 20:33:00,47.6,37.6,29.75,South,174,8.1,8.1,68,0.00,OVC,,0.00,WeatherDisplay:10.37,2013-04-01 00:33:00,
2013-03-31 20:38:00,47.4,37.8,29.75,ESE,112,9.2,9.2,69,0.00,OVC,,0.00,WeatherDisplay:10.37,2013-04-01 00:38:00,
2013-03-31 20:43:00,47.5,37.9,29.74,ESE,123,9.2,9.2,69,0.00,OVC,,0.00,WeatherDisplay:10.37,2013-04-01 00:43:00,
2013-03-31 20:49:00,47.5,38.2,29.74,SE,134,9.2,9.2,70,0.00,OVC,,0.00,WeatherDisplay:10.37,2013-04-01 00:49:00,
2013-03-31 20:54:00,47.4,38.1,29.74,SE,131,9.2,9.2,70,0.00,OVC,,0.00,WeatherDisplay:10.37,2013-04-01 00:54:00,
2013-03-31 20:59:00,47.4,38.5,29.73,ESE,119,9.2,9.2,71,0.00,OVC,,0.00,WeatherDisplay:10.37,2013-04-01 00:59:00,
2013-03-31 21:04:00,47.3,38.4,29.74,South,181,17.3,17.3,71,0.00,-RA,,0.00,WeatherDisplay:10.37,2013-04-01 01:04:00,
2013-03-31 21:09:00,47.4,38.9,29.74,ESE,113,9.2,9.2,72,0.00,-RA,,0.00,WeatherDisplay:10.37,2013-04-01 01:09:00,
2013-03-31 21:14:00,47.1,38.9,29.73,SSW,202,12.7,12.7,73,0.00,-RA,,0.00,WeatherDisplay:10.37,2013-04-01 01:14:00,
2013-03-31 21:19:00,47.2,39.0,29.74,SE,145,6.9,6.9,73,0.00,OVC,,0.00,WeatherDisplay:10.37,2013-04-01 01:19:00,
2013-03-31 21:25:00,47.3,39.5,29.74,SSE,154,6.9,6.9,74,0.00,OVC,,0.00,WeatherDisplay:10.37,2013-04-01 01:25:00,
2013-03-31 21:30:00,47.0,39.5,29.74,ESE,107,13.8,13.8,75,0.00,OVC,,0.00,WeatherDisplay:10.37,2013-04-01 01:30:00,
2013-03-31 21:35:00,46.7,39.9,29.74,SE,134,8.1,8.1,77,0.00,OVC,,0.00,WeatherDisplay:10.37,2013-04-01 01:35:00,
2013-03-31 21:40:00,46.7,40.2,29.73,South,172,10.4,10.4,78,0.00,OVC,,0.00,WeatherDisplay:10.37,2013-04-01 01:40:00,
2013-03-31 21:45:00,46.3,40.5,29.73,SE,140,9.6,9.6,80,0.00,OVC,,0.00,WeatherDisplay:10.37,2013-04-01 01:45:00,
2013-03-31 21:50:00,46.2,40.7,29.72,SSE,161,13.8,13.8,81,0.00,-RA,,0.00,WeatherDisplay:10.37,2013-04-01 01:50:00,
2013-03-31 21:55:00,45.7,40.9,29.72,SSW,198,10.4,10.4,83,0.00,-RA,,0.00,WeatherDisplay:10.37,2013-04-01 01:55:00,
2013-03-31 22:00:00,45.4,40.9,29.72,SSE,147,9.2,9.2,84,0.00,-RA,,0.00,WeatherDisplay:10.37,2013-04-01 02:00:00,
2013-03-31 22:05:00,45.2,41.0,29.72,SE,127,8.1,8.1,85,0.01,-RA,,0.01,WeatherDisplay:10.37,2013-04-01 02:05:00,
2013-03-31 22:10:00,44.9,41.6,29.72,SE,130,5.8,5.8,88,0.01,-RA,,0.01,WeatherDisplay:10.37,2013-04-01 02:10:00,
2013-03-31 22:15:00,44.4,41.4,29.71,SSE,152,11.5,11.5,89,0.01,-RA,,0.02,WeatherDisplay:10.37,2013-04-01 02:15:00,
2013-03-31 22:20:00,44.4,41.7,29.71,SE,138,9.2,9.2,90,0.02,-RA,,0.02,WeatherDisplay:10.37,2013-04-01 02:20:00,
2013-03-31 22:25:00,44.0,41.6,29.71,SE,144,6.9,6.9,91,0.03,-RA,,0.03,WeatherDisplay:10.37,2013-04-01 02:25:00,
2013-03-31 22:30:00,43.9,41.8,29.71,SE,145,6.9,6.9,92,0.03,-RA,,0.03,WeatherDisplay:10.37,2013-04-01 02:30:00,
2013-03-31 22:35:00,43.7,41.8,29.71,ESE,104,5.8,5.8,93,0.04,-RA,,0.04,WeatherDisplay:10.37,2013-04-01 02:35:00,
2013-03-31 22:40:00,43.7,42.1,29.71,SSE,155,9.2,9.2,94,0.05,-RA,,0.05,WeatherDisplay:10.37,2013-04-01 02:40:00,
2013-03-31 22:45:00,43.4,41.8,29.70,SE,126,6.6,6.6,94,0.06,-RA,,0.06,WeatherDisplay:10.37,2013-04-01 02:45:00,
2013-03-31 22:50:00,43.3,41.7,29.71,South,174,9.2,9.2,94,0.06,-RA,,0.06,WeatherDisplay:10.37,2013-04-01 02:50:00,
2013-03-31 22:55:00,43.5,41.9,29.71,ESE,123,3.5,3.5,94,0.07,-RA,,0.07,WeatherDisplay:10.37,2013-04-01 02:55:00,
2013-03-31 23:00:00,43.5,41.9,29.70,South,176,3.5,3.5,94,0.08,-RA,,0.08,WeatherDisplay:10.37,2013-04-01 03:00:00,
2013-03-31 23:05:00,43.4,42.1,29.69,SSE,158,6.9,6.9,95,0.08,-RA,,0.09,WeatherDisplay:10.37,2013-04-01 03:05:00,
2013-03-31 23:10:00,43.3,42.0,29.69,SE,130,4.6,4.6,95,0.08,-RA,,0.09,WeatherDisplay:10.37,2013-04-01 03:10:00,
2013-03-31 23:15:00,43.2,41.9,29.69,ESE,117,3.5,3.5,95,0.09,-RA,,0.10,WeatherDisplay:10.37,2013-04-01 03:15:00,
2013-03-31 23:20:00,43.3,42.0,29.68,South,175,0.0,0.0,95,0.08,-RA,,0.10,WeatherDisplay:10.37,2013-04-01 03:20:00,
2013-03-31 23:25:00,43.2,41.6,29.68,ESE,116,1.2,1.2,94,0.08,-RA,,0.11,WeatherDisplay:10.37,2013-04-01 03:25:00,
2013-03-31 23:30:00,43.3,41.7,29.68,ESE,116,0.0,0.0,94,0.08,-RA,,0.11,WeatherDisplay:10.37,2013-04-01 03:30:00,
2013-03-31 23:35:00,43.2,41.9,29.67,ESE,116,0.0,0.0,95,0.07,-RA,,0.11,WeatherDisplay:10.37,2013-04-01 03:35:00,
2013-03-31 23:40:00,43.3,42.0,29.67,ESE,116,0.0,0.0,95,0.06,-RA,,0.11,WeatherDisplay:10.37,2013-04-01 03:40:00,
2013-03-31 23:45:00,43.4,42.1,29.67,ESE,116,0.0,0.0,95,0.05,-RA,,0.11,WeatherDisplay:10.37,2013-04-01 03:45:00,
2013-03-31 23:50:00,43.4,42.1,29.67,ESE,116,0.0,0.0,95,0.05,-RA,,0.11,WeatherDisplay:10.37,2013-04-01 03:50:00,
2013-03-31 23:55:00,43.4,42.1,29.66,ESE,116,0.0,0.0,95,0.04,-RA,,0.11,WeatherDisplay:10.37,2013-04-01 03:55:00,